Erie, PA

8:24 AM EST on February 10, 2016 (GMT -0500)
Erie International

Weather History for KERI - September, 2012

Change the Weather History Date:

Tuesday, September 4, 2012

  Actual Average Record
Temperature  
Mean Temperature 76 °F 68 °F  
Max Temperature 83 °F 76 °F 97 °F (1953)
Min Temperature 69 °F 60 °F 46 °F (1951)
Degree Days  
Heating Degree Days 0 1  
Month to date heating degree days 0 4  
Since 1 July heating degree days 3 22  
Cooling Degree Days 11 4  
Month to date cooling degree days 44 16  
Year to date cooling degree days 849 574  
Growing Degree Days 26 (Base 50)    
Moisture  
Dew Point 69 °F    
Average Humidity 78    
Maximum Humidity 90    
Minimum Humidity 65    
Precipitation  
Precipitation 0.21 in 0.13 in 2.69 in (1944)
Month to date precipitation 0.21 0.52  
Year to date precipitation 20.92 26.35  
Snow  
Snow 0.00 in 0.00 in - ()
Month to date snowfall 0.0 0.0  
Since 1 July snowfall 0.0 0.0  
Since 1 September snowfall 0.0 0.0  
Snow Depth 0.00 in    
Sea Level Pressure  
Sea Level Pressure 29.85 in    
Wind  
Wind Speed 9 mph (NE)    
Max Wind Speed 15 mph    
Max Gust Speed 21 mph    
Visibility 8 miles    
Events Rain    
T = Trace of Precipitation, MM = Missing Value Source: NWS Daily Summary

Daily Weather History Graph

Daily Weather History Graph

Search for Another Location

Airport or City:

Trip Planner

Search our weather history database for the weather conditions in past years. The results will help you decide how hot, cold, wet, or windy it might be!

Date:

Astronomy

Sep. 04, 2012 Rise Set
Actual Time 6:49 AM EDT 7:48 PM EDT
Civil Twilight 6:21 AM EDT 8:16 PM EDT
Nautical Twilight 5:47 AM EDT 8:50 PM EDT
Astronomical Twilight 5:11 AM EDT 9:26 PM EDT
Moon 9:34 PM EDT (9/4) 11:00 AM EDT (9/4)
Length of Visible Light 13h 55m
Length of Day
12h 58m
Waning Gibbous, 84% of the Moon is Illuminated
Sep 4
Waning Gibbous
Sep 8
Last Quarter
Sep 15
New
Sep 22
First Quarter
Sep 29
Full

Hourly Weather History & Observations

Time (EDT) Temp. Heat Index Dew Point Humidity Pressure Visibility Wind Dir Wind Speed Gust Speed Precip Events Conditions
12:51 AM 77.0 °F - 68.0 °F 74% 29.92 in 10.0 mi SSE 12.7 mph 23.0 mph N/A   Clear
1:51 AM 75.9 °F - 68.0 °F 76% 29.92 in 10.0 mi South 12.7 mph - N/A   Scattered Clouds
2:51 AM 73.9 °F - 68.0 °F 82% 29.91 in 10.0 mi South 11.5 mph - N/A   Clear
3:51 AM 73.9 °F - 68.0 °F 82% 29.89 in 10.0 mi South 10.4 mph - N/A   Clear
4:51 AM 73.0 °F - 66.9 °F 81% 29.88 in 10.0 mi SSE 10.4 mph - N/A   Scattered Clouds
5:51 AM 72.0 °F - 66.9 °F 84% 29.90 in 10.0 mi SSE 9.2 mph - N/A   Clear
6:51 AM 73.0 °F - 66.9 °F 81% 29.90 in 10.0 mi SSE 8.1 mph - N/A   Overcast
7:51 AM 73.0 °F - 68.0 °F 84% 29.90 in 10.0 mi SSE 9.2 mph - N/A   Overcast
8:51 AM 73.9 °F - 68.0 °F 82% 29.89 in 9.0 mi SSE 8.1 mph - N/A   Overcast
9:51 AM 77.0 °F - 69.1 °F 76% 29.88 in 6.0 mi South 8.1 mph - N/A   Haze
10:51 AM 80.1 °F 83.2 °F 70.0 °F 71% 29.87 in 8.0 mi South 10.4 mph - N/A   Overcast
11:34 AM 80.6 °F 83.9 °F 69.8 °F 70% 29.87 in 10.0 mi SSE 12.7 mph - N/A   Overcast
11:51 AM 79.0 °F - 69.1 °F 72% 29.86 in 10.0 mi SSW 12.7 mph - N/A   Overcast
12:51 PM 82.0 °F 85.5 °F 69.1 °F 65% 29.83 in 10.0 mi SSW 8.1 mph - N/A   Overcast
1:09 PM 82.4 °F 85.4 °F 68.0 °F 62% 29.84 in 1.8 mi SSW 11.5 mph 17.3 mph N/A   Haze
1:17 PM 82.4 °F 85.4 °F 68.0 °F 62% 29.84 in 5.0 mi South 8.1 mph 18.4 mph N/A   Haze
1:51 PM 78.8 °F - 69.8 °F 74% 29.84 in 5.0 mi West 8.1 mph - N/A   Haze
2:06 PM 77.0 °F - 71.6 °F 83% 29.84 in 1.8 mi WNW 12.7 mph - 0.00 in Rain Heavy Rain
2:27 PM 75.2 °F - 73.4 °F 94% 29.83 in 2.5 mi NW 4.6 mph - 0.17 in Rain Light Rain
2:34 PM 75.2 °F - 71.6 °F 89% 29.83 in 6.0 mi WNW 5.8 mph - 0.17 in Rain Light Rain
2:51 PM 75.0 °F - 72.0 °F 90% 29.82 in 6.0 mi WNW 5.8 mph - 0.17 in   Overcast
3:14 PM 75.2 °F - 71.6 °F 89% 29.83 in 7.0 mi WNW 4.6 mph - 0.00 in Rain Light Rain
3:51 PM 75.0 °F - 71.1 °F 87% 29.80 in 6.0 mi NW 5.8 mph - 0.00 in   Overcast
4:18 PM 75.2 °F - 71.6 °F 89% 29.81 in 6.0 mi NW 3.5 mph - N/A   Overcast
4:51 PM 75.0 °F - 72.0 °F 90% 29.81 in 6.0 mi WNW 4.6 mph - N/A   Overcast
5:11 PM 73.4 °F - 71.6 °F 94% 29.82 in 3.0 mi NW 8.1 mph - 0.01 in Rain Light Rain
5:26 PM 73.4 °F - 71.6 °F 94% 29.82 in 3.0 mi NW 6.9 mph - 0.03 in Rain Light Rain
5:51 PM 73.4 °F - 69.8 °F 88% 29.82 in 6.0 mi North 5.8 mph - N/A Rain Light Rain
6:12 PM 73.4 °F - 69.8 °F 88% 29.83 in 8.0 mi North 5.8 mph - 0.00 in   Overcast
6:51 PM 70.0 °F - 66.9 °F 90% 29.82 in 10.0 mi NE 11.5 mph - 0.01 in   Overcast
7:19 PM 71.6 °F - 68.0 °F 88% 29.83 in 10.0 mi NE 9.2 mph - N/A   Overcast
7:34 PM 71.6 °F - 68.0 °F 88% 29.83 in 10.0 mi ENE 8.1 mph - N/A   Overcast
7:51 PM 71.1 °F - 68.0 °F 90% 29.82 in 10.0 mi ENE 10.4 mph - N/A   Overcast
8:04 PM 71.6 °F - 68.0 °F 88% 29.83 in 10.0 mi East 9.2 mph - N/A   Overcast
8:49 PM 71.6 °F - 68.0 °F 88% 29.84 in 10.0 mi ENE 5.8 mph - N/A   Overcast
8:51 PM 71.1 °F - 68.0 °F 90% 29.83 in 10.0 mi ENE 5.8 mph - N/A   Overcast
9:51 PM 71.1 °F - 68.0 °F 90% 29.84 in 10.0 mi NNE 5.8 mph - N/A   Overcast
10:41 PM 71.6 °F - 66.2 °F 83% 29.85 in 10.0 mi NNE 9.2 mph - N/A   Overcast
10:51 PM 70.0 °F - 66.9 °F 90% 29.84 in 9.0 mi North 12.7 mph - N/A   Overcast
10:58 PM 69.8 °F - 66.2 °F 88% 29.86 in 8.0 mi North 10.4 mph - N/A   Overcast
11:31 PM 69.8 °F - 66.2 °F 88% 29.86 in 10.0 mi NNE 6.9 mph - N/A   Overcast
11:51 PM 70.0 °F - 66.0 °F 87% 29.85 in 10.0 mi NNE 8.1 mph - N/A   Overcast
11:59 PM 69.8 °F - 66.2 °F 88% 29.87 in 10.0 mi NNE 6.9 mph - N/A   Overcast